リニア彗星

C/2002 V2 ( LINEAR )

English version
Home page
Updated on January 20, 2013

---------------------------------------------------------------------

・ プロフィール

発見日 2002年11月5日
発見光度 18.6等
発見者 Lincoln Laboratory Near-Earth Asteroid Research project

・ 軌道要素

Epoch 2003 May 1.0 TT = JDT 2452760.5
T 2003 May 13.59981 TT                                  MPC
q   6.8119986            (2000.0)            P               Q
z  +0.0002205      Peri.  314.67296     +0.42023518     +0.90395940
 +/-0.0000012      Node    20.23465     +0.88375811     -0.42750017
e   0.9984976      Incl.  166.77615     +0.20584945     -0.01005004
From 278 observations 2001 Jan. 3-2005 Sept. 26, mean residual 0".6.

・ 星図

・ 光度変化

        m1 = 6.0 + 5 logΔ + 10.0 log r

---------------------------------------------------------------------

軌道要素はM.P.E.C. 2013-A29に掲載されたものです。
星図は StellaNavigator Ver.2.0 for Windows (アストロアーツ 編著 / アスキー出版局刊) で作成したものです。
光度グラフはComet for Windowsで作成したものです。

---------------------------------------------------------------------

Copyright(C) Seiichi Yoshida (comet@aerith.net). All rights reserved.